Change the Weather History Date:

Sunday, October 28, 2012

  Actual Average Record
Temperature  
Mean Temperature 38 °F 49 °F  
Max Temperature 49 °F 59 °F 83 °F (1927)
Min Temperature 26 °F 38 °F 12 °F (1925)
Degree Days  
Heating Degree Days 27 16  
Month to date heating degree days 366 329  
Since 1 July heating degree days 502 436  
Cooling Degree Days 0 0  
Month to date cooling degree days 19 10  
Year to date cooling degree days 1319 937  
Moisture  
Dew Point 23 °F    
Average Humidity 60    
Maximum Humidity 85    
Minimum Humidity 34    
Precipitation  
Precipitation 0.00 in 0.09 in 1.73 in (1921)
Month to date precipitation 3.93 3.06  
Year to date precipitation 24.69 34.58  
Sea Level Pressure  
Sea Level Pressure 30.34 in    
Wind  
Wind Speed 4 mph (NNE)    
Max Wind Speed 12 mph    
Max Gust Speed 17 mph    
Visibility 10 miles    
Events      
T = Trace of Precipitation, MM = Missing Value Source: NWS Daily Summary

Daily Weather History Graph

Daily Weather History Graph

Search for Another Location

Airport or City:

Trip Planner

Search our weather history database for the weather conditions in past years. The results will help you decide how hot, cold, wet, or windy it might be!

Date:

Astronomy

Oct. 28, 2012 Rise Set
Actual Time 7:35 AM CDT 6:11 PM CDT
Civil Twilight 7:07 AM CDT 6:39 PM CDT
Nautical Twilight 6:35 AM CDT 7:11 PM CDT
Astronomical Twilight 6:04 AM CDT 7:43 PM CDT
Moon 5:29 PM CDT (10/28) 6:28 AM CDT (10/28)
Length of Visible Light 11h 32m
Length of Day
10h 36m
Waxing Gibbous, 99% of the Moon is Illuminated
Oct 28
Waxing Gibbous
Oct 29
Full
Nov 6
Last Quarter
Nov 13
New
Nov 20
First Quarter

Hourly Weather History & Observations

Time (CDT) Temp. Windchill Dew Point Humidity Pressure Visibility Wind Dir Wind Speed Gust Speed Precip Events Conditions
12:55 AM 30.9 °F 27.5 °F 26.1 °F 82% 30.35 in 10.0 mi North 3.5 mph - N/A   Clear
1:55 AM 30.0 °F - 25.0 °F 82% 30.35 in 10.0 mi Calm Calm - N/A   Clear
2:55 AM 28.9 °F 23.9 °F 25.0 °F 85% 30.35 in 10.0 mi NNW 4.6 mph - N/A   Clear
3:55 AM 28.9 °F 23.9 °F 24.1 °F 82% 30.33 in 10.0 mi North 4.6 mph - N/A   Clear
4:55 AM 30.0 °F 26.5 °F 25.0 °F 82% 30.33 in 10.0 mi North 3.5 mph - N/A   Scattered Clouds
5:55 AM 30.0 °F 26.5 °F 24.1 °F 79% 30.34 in 10.0 mi North 3.5 mph - N/A   Partly Cloudy
6:55 AM 27.0 °F 21.6 °F 21.9 °F 81% 30.35 in 10.0 mi NNE 4.6 mph - N/A   Clear
7:55 AM 28.0 °F 22.8 °F 21.9 °F 78% 30.37 in 10.0 mi North 4.6 mph - N/A   Clear
8:55 AM 33.1 °F 27.7 °F 26.1 °F 75% 30.38 in 10.0 mi NNE 5.8 mph - N/A   Clear
9:55 AM 37.4 °F 33.8 °F 26.6 °F 65% 30.34 in 10.0 mi NE 4.6 mph - N/A   Clear
10:55 AM 42.1 °F 37.1 °F 21.9 °F 45% 30.38 in 10.0 mi ENE 8.1 mph - N/A   Clear
11:55 AM 44.1 °F 42.5 °F 19.9 °F 38% 30.37 in 10.0 mi NE 3.5 mph - N/A   Clear
12:55 PM 46.0 °F 41.9 °F 21.0 °F 37% 30.35 in 10.0 mi North 8.1 mph - N/A   Clear
1:55 PM 46.9 °F - 21.0 °F 36% 30.33 in 10.0 mi North 3.5 mph - N/A   Clear
2:55 PM 48.0 °F - 21.0 °F 34% 30.31 in 10.0 mi North 9.2 mph - N/A   Clear
3:55 PM 48.0 °F - 21.0 °F 34% 30.31 in 10.0 mi NE 6.9 mph - N/A   Clear
4:55 PM 46.9 °F - 21.0 °F 36% 30.31 in 10.0 mi NNE 5.8 mph - N/A   Clear
5:55 PM 41.0 °F 37.1 °F 25.0 °F 53% 30.31 in 10.0 mi NE 5.8 mph - N/A   Clear
6:55 PM 37.9 °F - 23.0 °F 55% 30.32 in 10.0 mi Calm Calm - N/A   Clear
7:55 PM 34.0 °F - 21.9 °F 61% 30.33 in 10.0 mi Calm Calm - N/A   Clear
8:55 PM 32.0 °F - 23.0 °F 69% 30.34 in 10.0 mi Calm Calm - N/A   Clear
9:55 PM 28.9 °F - 24.1 °F 82% 30.35 in 10.0 mi Calm Calm - N/A   Clear
10:55 PM 28.0 °F 24.2 °F 23.0 °F 81% 30.34 in 10.0 mi North 3.5 mph - N/A   Clear
11:55 PM 30.9 °F 27.5 °F 23.0 °F 72% 30.33 in 10.0 mi NE 3.5 mph - N/A   Clear